Location: Chircca
(13.7944°S, 72.0608°W)
Time: 06:12:16
(UTC+00:00)

CZ-3 R/B - Pass Details

Date: 14 July 2020
Orbit: 361 x 10250 km, 28.4° (Epoch: 14 August)

Event Time Altitude Azimuth Distance (km) Brightness Sun altitude
Rises 10:28:14 0° 305° (NW) 9,251 6.2 -10.9°
Reaches altitude 10° 10:37:21 10° 309° (NW) 6,392 5.4 -8.9°
Maximum altitude 10:51:39 51° 20° (NNE) 1,482 2.8 -5.6°
Drops below altitude 10° 10:56:15 10° 97° (E) 2,164 4.5 -4.6°
Sets 10:57:49 0° 103° (ESE) 2,779 5.0 -4.2°
